| time (UTC) | temp C | wind direction | speed KPH | gust KPH | rain 1hr cm | rain 24hr cm | rain mn cm | humidity % | barometer mb |
| 20260903192703 | 21 | 189 | 3.2 | 12.9 | 0.00 | 0.00 | 0.00 | 80 | 1015.5 |
| 20260903191806 | 21 | 224 | 3.2 | 16.1 | 0.00 | 0.00 | 0.00 | 79 | 1015.5 |
| 20260903190903 | 22 | 212 | 3.2 | 11.3 | 0.00 | 0.00 | 0.00 | 78 | 1015.5 |
| 20260903190005 | 22 | 200 | 3.2 | 14.5 | 0.00 | 0.00 | 0.00 | 78 | 1015.5 |
| 20260903185404 | 22 | 178 | 3.2 | 11.3 | 0.00 | 0.00 | 0.00 | 77 | 1015.4 |
| 20260903184505 | 22 | 206 | 4.8 | 14.5 | 0.00 | 0.00 | 0.00 | 77 | 1015.4 |
| 20260903183605 | 22 | 235 | 4.8 | 19.3 | 0.00 | 0.00 | 0.00 | 76 | 1015.3 |
| 20260903182704 | 22 | 211 | 4.8 | 19.3 | 0.00 | 0.00 | 0.00 | 76 | 1015.3 |
| 20260903181803 | 23 | 219 | 4.8 | 17.7 | 0.00 | 0.00 | 0.00 | 75 | 1015.3 |
| 20260903180008 | 23 | 216 | 4.8 | 12.9 | 0.00 | 0.00 | 0.00 | 74 | 1015.5 |
| 20260903175405 | 23 | 226 | 4.8 | 14.5 | 0.00 | 0.00 | 0.00 | 74 | 1015.5 |
| 20260903174504 | 23 | 198 | 3.2 | 14.5 | 0.00 | 0.00 | 0.00 | 73 | 1015.6 |
| 20260903173605 | 23 | 242 | 3.2 | 16.1 | 0.00 | 0.00 | 0.00 | 73 | 1015.6 |
| 20260903172703 | 24 | 204 | 6.4 | 24.1 | 0.00 | 0.00 | 0.00 | 72 | 1015.5 |
| 20260903171806 | 24 | 237 | 4.8 | 17.7 | 0.00 | 0.00 | 0.00 | 72 | 1015.4 |
| 20260903170904 | 24 | 166 | 4.8 | 12.9 | 0.00 | 0.00 | 0.00 | 72 | 1015.4 |
| 20260903170004 | 24 | 225 | 4.8 | 17.7 | 0.00 | 0.00 | 0.00 | 71 | 1015.6 |
| 20260903165403 | 24 | 218 | 4.8 | 19.3 | 0.00 | 0.00 | 0.00 | 71 | 1015.5 |
| 20260903164505 | 25 | 216 | 3.2 | 12.9 | 0.00 | 0.00 | 0.00 | 70 | 1015.4 |
| 20260903163603 | 25 | 225 | 4.8 | 16.1 | 0.00 | 0.00 | 0.00 | 70 | 1015.5 |
| 20260903162704 | 25 | 167 | 4.8 | 11.3 | 0.00 | 0.00 | 0.00 | 70 | 1015.4 |
| 20260903161803 | 25 | 218 | 4.8 | 22.5 | 0.00 | 0.00 | 0.00 | 69 | 1015.5 |
| 20260903160905 | 25 | 191 | 4.8 | 11.3 | 0.00 | 0.00 | 0.00 | 69 | 1015.4 |
| 20260903160003 | 25 | 233 | 4.8 | 19.3 | 0.00 | 0.00 | 0.00 | 68 | 1015.4 |
| 20260903155406 | 26 | 226 | 3.2 | 19.3 | 0.00 | 0.00 | 0.00 | 66 | 1015.6 |
| 20260903154505 | 25 | 228 | 4.8 | 12.9 | 0.00 | 0.00 | 0.00 | 67 | 1015.8 |
| 20260903153606 | 25 | 233 | 4.8 | 22.5 | 0.00 | 0.00 | 0.00 | 67 | 1015.8 |
| 20260903152705 | 26 | 245 | 3.2 | 9.7 | 0.00 | 0.00 | 0.00 | 67 | 1015.8 |
| 20260903151806 | 25 | 217 | 3.2 | 14.5 | 0.00 | 0.00 | 0.00 | 66 | 1015.9 |
| 20260903150905 | 25 | 185 | 3.2 | 12.9 | 0.00 | 0.00 | 0.00 | 69 | 1016.0 |
| 20260903150005 | 25 | 236 | 3.2 | 12.9 | 0.00 | 0.00 | 0.00 | 67 | 1016.0 |
| 20260903145403 | 25 | 231 | 4.8 | 14.5 | 0.00 | 0.00 | 0.00 | 65 | 1016.2 |
| 20260903144504 | 25 | 240 | 4.8 | 17.7 | 0.00 | 0.00 | 0.00 | 64 | 1015.9 |
| 20260903143605 | 26 | 246 | 4.8 | 17.7 | 0.00 | 0.00 | 0.00 | 63 | 1016.1 |
| 20260903142915 | 26 | 252 | 4.8 | 12.9 | 0.00 | 0.00 | 0.00 | 62 | 1016.2 |
| 20260903142017 | 26 | 242 | 4.8 | 12.9 | 0.00 | 0.00 | 0.00 | 60 | 1016.2 |
| 20260903140906 | 26 | 241 | 4.8 | 19.3 | 0.00 | 0.00 | 0.00 | 59 | 1016.2 |
| 20260903140003 | 26 | 255 | 3.2 | 19.3 | 0.00 | 0.00 | 0.00 | 59 | 1016.4 |
| 20260903135405 | 26 | 254 | 4.8 | 14.5 | 0.00 | 0.00 | 0.00 | 60 | 1016.5 |
| 20260903134503 | 26 | 253 | 4.8 | 12.9 | 0.00 | 0.00 | 0.00 | 59 | 1016.7 |
| 20260903133813 | 26 | 254 | 3.2 | 12.9 | 0.00 | 0.00 | 0.00 | 59 | 1016.6 |
| 20260903132916 | 26 | 243 | 3.2 | 20.9 | 0.00 | 0.00 | 0.00 | 61 | 1016.8 |
| 20260903131805 | 26 | 250 | 3.2 | 12.9 | 0.00 | 0.00 | 0.00 | 62 | 1016.8 |
| 20260903130906 | 26 | 251 | 4.8 | 12.9 | 0.00 | 0.00 | 0.00 | 62 | 1016.7 |
| 20260903130005 | 25 | 258 | 4.8 | 12.9 | 0.00 | 0.00 | 0.00 | 63 | 1016.6 |
| 20260903125403 | 25 | 252 | 4.8 | 17.7 | 0.00 | 0.00 | 0.00 | 66 | 1016.7 |
| 20260903124503 | 25 | 248 | 3.2 | 12.9 | 0.00 | 0.00 | 0.00 | 65 | 1016.9 |
| 20260903123819 | 25 | 255 | 3.2 | 12.9 | 0.00 | 0.00 | 0.00 | 64 | 1016.8 |
| 20260903122703 | 25 | 249 | 3.2 | 16.1 | 0.00 | 0.00 | 0.00 | 64 | 1016.9 |
| 20260903122019 | 25 | 303 | 1.6 | 8.0 | 0.00 | 0.00 | 0.00 | 63 | 1016.9 |
| 20260903120903 | 25 | 254 | 3.2 | 12.9 | 0.00 | 0.00 | 0.00 | 63 | 1016.8 |
| 20260903120004 | 25 | 259 | 3.2 | 9.7 | 0.00 | 0.00 | 0.00 | 65 | 1016.7 |
| 20260903115403 | 25 | 236 | 3.2 | 11.3 | 0.00 | 0.00 | 0.00 | 66 | 1016.8 |
| 20260903113814 | 24 | 244 | 3.2 | 11.3 | 0.00 | 0.00 | 0.00 | 68 | 1016.9 |
| 20260903112705 | 23 | 250 | 3.2 | 11.3 | 0.00 | 0.00 | 0.00 | 69 | 1016.9 |
| 20260903111805 | 23 | 230 | 3.2 | 14.5 | 0.00 | 0.00 | 0.00 | 70 | 1017.0 |
| 20260903110905 | 23 | 221 | 3.2 | 12.9 | 0.00 | 0.00 | 0.00 | 70 | 1017.0 |
| 20260903110005 | 23 | 256 | 1.6 | 8.0 | 0.00 | 0.00 | 0.00 | 73 | 1017.0 |
| 20260903105403 | 23 | 255 | 3.2 | 8.0 | 0.00 | 0.00 | 0.00 | 72 | 1017.2 |
| 20260903104505 | 23 | 260 | 3.2 | 11.3 | 0.00 | 0.00 | 0.00 | 72 | 1017.2 |
| 20260903103603 | 23 | 253 | 3.2 | 11.3 | 0.00 | 0.00 | 0.00 | 71 | 1017.2 |
| 20260903102703 | 23 | 253 | 1.6 | 6.4 | 0.00 | 0.00 | 0.00 | 72 | 1017.2 |
| 20260903102015 | 22 | 251 | 1.6 | 12.9 | 0.00 | 0.00 | 0.00 | 73 | 1017.3 |
| 20260903100903 | 22 | 245 | 3.2 | 11.3 | 0.00 | 0.00 | 0.00 | 74 | 1017.1 |
| 20260903100017 | 21 | 256 | 1.6 | 6.4 | 0.00 | 0.00 | 0.00 | 77 | 1017.1 |
| 20260903095403 | 21 | 255 | 1.6 | 11.3 | 0.00 | 0.00 | 0.00 | 77 | 1017.3 |
| 20260903094505 | 21 | 255 | 1.6 | 11.3 | 0.00 | 0.00 | 0.00 | 77 | 1017.4 |
| 20260903093605 | 21 | 275 | 1.6 | 8.0 | 0.00 | 0.00 | 0.00 | 78 | 1017.4 |
| 20260903092705 | 21 | 250 | 1.6 | 8.0 | 0.00 | 0.00 | 0.00 | 78 | 1017.3 |
| 20260903091803 | 21 | 268 | 1.6 | 9.7 | 0.00 | 0.00 | 0.00 | 78 | 1017.4 |
| 20260903091113 | 21 | 250 | 1.6 | 8.0 | 0.00 | 0.00 | 0.00 | 78 | 1017.4 |
| 20260903090006 | 21 | 277 | 3.2 | 12.9 | 0.00 | 0.00 | 0.00 | 79 | 1017.1 |
| 20260903085403 | 21 | 262 | 3.2 | 11.3 | 0.00 | 0.00 | 0.00 | 80 | 1017.1 |
| 20260903084506 | 21 | 243 | 3.2 | 11.3 | 0.00 | 0.00 | 0.00 | 80 | 1017.0 |
| 20260903083605 | 20 | 248 | 1.6 | 11.3 | 0.00 | 0.00 | 0.00 | 81 | 1016.9 |
| 20260903082703 | 20 | 229 | 4.8 | 14.5 | 0.00 | 0.00 | 0.00 | 81 | 1016.6 |
| 20260903081805 | 20 | 253 | 3.2 | 19.3 | 0.00 | 0.00 | 0.00 | 82 | 1016.4 |
| 20260903080903 | 20 | 242 | 3.2 | 12.9 | 0.00 | 0.00 | 0.00 | 83 | 1016.2 |
| 20260903080005 | 20 | 235 | 4.8 | 14.5 | 0.00 | 0.00 | 0.00 | 83 | 1016.1 |
| 20260903075405 | 20 | 250 | 3.2 | 12.9 | 0.00 | 0.00 | 0.00 | 83 | 1016.1 |
| 20260903074505 | 20 | 243 | 3.2 | 12.9 | 0.00 | 0.00 | 0.00 | 84 | 1016.0 |
| 20260903073603 | 20 | 228 | 3.2 | 12.9 | 0.00 | 0.00 | 0.00 | 85 | 1016.0 |
| 20260903072705 | 19 | 238 | 3.2 | 17.7 | 0.00 | 0.00 | 0.00 | 85 | 1015.7 |
| 20260903071803 | 19 | 221 | 3.2 | 11.3 | 0.00 | 0.00 | 0.00 | 85 | 1015.4 |
| 20260903070905 | 19 | 196 | 1.6 | 11.3 | 0.00 | 0.00 | 0.00 | 86 | 1015.9 |
| 20260903070003 | 19 | 190 | 1.6 | 6.4 | 0.00 | 0.00 | 0.00 | 86 | 1016.1 |
| 20260903065405 | 19 | 227 | 1.6 | 6.4 | 0.00 | 0.00 | 0.00 | 86 | 1016.1 |
| 20260903064505 | 19 | 229 | 1.6 | 11.3 | 0.00 | 0.00 | 0.00 | 86 | 1016.0 |
| 20260903063603 | 19 | 227 | 1.6 | 6.4 | 0.00 | 0.00 | 0.00 | 86 | 1016.2 |
| 20260903062703 | 18 | 242 | 1.6 | 11.3 | 0.00 | 0.00 | 0.00 | 87 | 1016.1 |
| 20260903062018 | 18 | 234 | 1.6 | 11.3 | 0.00 | 0.00 | 0.00 | 87 | 1016.0 |
| 20260903060903 | 18 | 220 | 1.6 | 9.7 | 0.00 | 0.00 | 0.00 | 87 | 1015.9 |
| 20260903060003 | 18 | 248 | 1.6 | 9.7 | 0.00 | 0.00 | 0.00 | 87 | 1015.9 |
| 20260903055405 | 18 | 250 | 1.6 | 9.7 | 0.00 | 0.00 | 0.00 | 87 | 1015.8 |
| 20260903054506 | 18 | 237 | 3.2 | 11.3 | 0.00 | 0.00 | 0.00 | 88 | 1015.8 |
| 20260903053605 | 18 | 211 | 3.2 | 9.7 | 0.00 | 0.00 | 0.00 | 88 | 1015.7 |
| 20260903052703 | 18 | 203 | 3.2 | 8.0 | 0.00 | 0.00 | 0.00 | 88 | 1015.6 |
| 20260903051803 | 18 | 190 | 1.6 | 9.7 | 0.00 | 0.00 | 0.00 | 88 | 1015.6 |
| 20260903050903 | 18 | 214 | 1.6 | 8.0 | 0.00 | 0.00 | 0.00 | 88 | 1015.6 |
| 20260903050006 | 18 | 221 | 3.2 | 14.5 | 0.00 | 0.00 | 0.00 | 88 | 1015.6 |
| 20260903045405 | 18 | 222 | 1.6 | 8.0 | 0.00 | 0.00 | 0.00 | 88 | 1015.6 |
| 20260903044506 | 18 | 228 | 1.6 | 8.0 | 0.00 | 0.00 | 0.00 | 88 | 1015.4 |
| 20260903043605 | 18 | 209 | 1.6 | 11.3 | 0.00 | 0.00 | 0.00 | 88 | 1015.4 |
| 20260903042916 | 18 | 229 | 3.2 | 11.3 | 0.00 | 0.00 | 0.00 | 88 | 1015.5 |
| 20260903041805 | 18 | 170 | 1.6 | 8.0 | 0.00 | 0.00 | 0.00 | 88 | 1015.5 |
| 20260903040903 | 18 | 241 | 1.6 | 9.7 | 0.00 | 0.00 | 0.00 | 88 | 1015.4 |
| 20260903040003 | 18 | 243 | 3.2 | 14.5 | 0.00 | 0.00 | 0.00 | 88 | 1015.8 |
| 20260903035406 | 18 | 232 | 3.2 | 12.9 | 0.00 | 0.00 | 0.00 | 88 | 1015.9 |
| 20260903034503 | 18 | 233 | 1.6 | 11.3 | 0.00 | 0.00 | 0.00 | 88 | 1015.7 |
| 20260903033605 | 18 | 175 | 1.6 | 8.0 | 0.00 | 0.00 | 0.00 | 87 | 1015.5 |
| 20260903032703 | 18 | 212 | 1.6 | 14.5 | 0.00 | 0.00 | 0.00 | 87 | 1015.4 |
| 20260903032014 | 18 | 240 | 3.2 | 14.5 | 0.00 | 0.00 | 0.00 | 87 | 1015.5 |
| 20260903030905 | 18 | 199 | 3.2 | 12.9 | 0.00 | 0.00 | 0.00 | 87 | 1015.6 |
| 20260903030005 | 18 | 235 | 3.2 | 11.3 | 0.00 | 0.00 | 0.00 | 87 | 1015.5 |
| 20260903025403 | 18 | 242 | 3.2 | 14.5 | 0.00 | 0.00 | 0.00 | 87 | 1015.4 |
| 20260903024503 | 18 | 200 | 3.2 | 9.7 | 0.00 | 0.00 | 0.00 | 87 | 1015.6 |
| 20260903023815 | 18 | 205 | 3.2 | 8.0 | 0.00 | 0.00 | 0.00 | 87 | 1015.7 |
| 20260903022705 | 18 | 174 | 1.6 | 12.9 | 0.00 | 0.00 | 0.00 | 87 | 1015.5 |
| 20260903021805 | 18 | 207 | 3.2 | 11.3 | 0.00 | 0.00 | 0.00 | 87 | 1015.6 |
| 20260903020905 | 18 | 217 | 1.6 | 11.3 | 0.00 | 0.00 | 0.00 | 87 | 1015.5 |
| 20260903020215 | 18 | 157 | 1.6 | 11.3 | 0.00 | 0.00 | 0.00 | 87 | 1015.7 |
| 20260903015626 | 18 | 178 | 3.2 | 12.9 | 0.00 | 0.00 | 0.00 | 87 | 1015.6 |
| 20260903014503 | 18 | 222 | 1.6 | 8.0 | 0.00 | 0.00 | 0.00 | 87 | 1015.7 |
| 20260903013603 | 18 | 213 | 1.6 | 8.0 | 0.00 | 0.00 | 0.00 | 87 | 1015.7 |
| 20260903012706 | 18 | 213 | 1.6 | 11.3 | 0.00 | 0.00 | 0.00 | 87 | 1015.9 |
| 20260903011803 | 18 | 223 | 1.6 | 11.3 | 0.00 | 0.00 | 0.00 | 87 | 1015.9 |
| 20260903010905 | 18 | 241 | 3.2 | 12.9 | 0.00 | 0.00 | 0.00 | 87 | 1015.8 |
| 20260903010003 | 18 | 213 | 3.2 | 11.3 | 0.00 | 0.00 | 0.00 | 87 | 1015.9 |
| 20260903005403 | 18 | 229 | 1.6 | 11.3 | 0.00 | 0.00 | 0.00 | 87 | 1016.1 |
| 20260903004505 | 18 | 225 | 3.2 | 17.7 | 0.00 | 0.00 | 0.00 | 87 | 1016.3 |
| 20260903003604 | 18 | 253 | 1.6 | 17.7 | 0.00 | 0.00 | 0.00 | 87 | 1016.2 |
| 20260903002704 | 18 | 196 | 1.6 | 11.3 | 0.00 | 0.00 | 0.00 | 87 | 1016.2 |
| 20260903001805 | 18 | 240 | 1.6 | 9.7 | 0.00 | 0.00 | 0.00 | 87 | 1016.1 |
| 20260903000903 | 18 | 234 | 1.6 | 11.3 | 0.00 | 0.00 | 0.00 | 87 | 1016.2 |
| 20260903000003 | 18 | 249 | 3.2 | 9.7 | 0.00 | 0.00 | 0.00 | 87 | 1016.4 |
| 20260902235403 | 18 | 228 | 3.2 | 9.7 | 0.00 | 0.00 | 0.00 | 87 | 1016.1 |
| 20260902234503 | 18 | 246 | 3.2 | 11.3 | 0.00 | 0.00 | 0.00 | 87 | 1016.1 |
| 20260902233817 | 18 | 229 | 3.2 | 11.3 | 0.00 | 0.00 | 0.00 | 87 | 1016.1 |
| 20260902232705 | 18 | 225 | 3.2 | 14.5 | 0.00 | 0.00 | 0.00 | 87 | 1016.4 |
| 20260902231803 | 18 | 216 | 1.6 | 14.5 | 0.00 | 0.00 | 0.00 | 87 | 1016.4 |
| 20260902230905 | 18 | 213 | 1.6 | 6.4 | 0.00 | 0.00 | 0.00 | 87 | 1016.4 |
| 20260902230005 | 18 | 205 | 1.6 | 6.4 | 0.00 | 0.00 | 0.00 | 87 | 1016.5 |
| 20260902225405 | 18 | 233 | 3.2 | 12.9 | 0.00 | 0.00 | 0.00 | 87 | 1016.7 |
| 20260902224504 | 18 | 187 | 1.6 | 12.9 | 0.00 | 0.00 | 0.00 | 88 | 1016.6 |
| 20260902223606 | 18 | 214 | 1.6 | 11.3 | 0.00 | 0.00 | 0.00 | 87 | 1016.7 |
| 20260902222703 | 18 | 184 | 1.6 | 12.9 | 0.00 | 0.00 | 0.00 | 87 | 1016.6 |
| 20260902222012 | 18 | 221 | 3.2 | 12.9 | 0.00 | 0.00 | 0.00 | 87 | 1016.4 |
| 20260902220903 | 18 | 232 | 3.2 | 12.9 | 0.00 | 0.00 | 0.00 | 87 | 1016.4 |
| 20260902220003 | 18 | 238 | 3.2 | 12.9 | 0.00 | 0.00 | 0.00 | 87 | 1016.2 |
| 20260902215408 | 18 | 231 | 3.2 | 14.5 | 0.00 | 0.00 | 0.00 | 87 | 1016.2 |
| 20260902214503 | 18 | 237 | 3.2 | 14.5 | 0.00 | 0.00 | 0.00 | 87 | 1016.2 |
| 20260902213605 | 18 | 228 | 3.2 | 16.1 | 0.00 | 0.00 | 0.00 | 87 | 1016.3 |
| 20260902212916 | 19 | 214 | 3.2 | 9.7 | 0.00 | 0.00 | 0.00 | 87 | 1016.2 |
| 20260902211806 | 19 | 203 | 1.6 | 11.3 | 0.00 | 0.00 | 0.00 | 87 | 1016.3 |
| 20260902211115 | 19 | 233 | 1.6 | 14.5 | 0.00 | 0.00 | 0.00 | 87 | 1016.3 |
| 20260902210003 | 19 | 236 | 3.2 | 11.3 | 0.00 | 0.00 | 0.00 | 87 | 1016.3 |
| 20260902205403 | 19 | 223 | 3.2 | 14.5 | 0.00 | 0.00 | 0.00 | 87 | 1016.3 |
| 20260902204717 | 19 | 231 | 3.2 | 11.3 | 0.00 | 0.00 | 0.00 | 87 | 1016.3 |
| 20260902203605 | 19 | 230 | 3.2 | 12.9 | 0.00 | 0.00 | 0.00 | 87 | 1016.2 |
| 20260902202703 | 19 | 190 | 3.2 | 9.7 | 0.00 | 0.00 | 0.00 | 87 | 1016.1 |
| 20260902202019 | 19 | 215 | 3.2 | 16.1 | 0.00 | 0.00 | 0.00 | 87 | 1016.1 |
| 20260902200905 | 18 | 217 | 3.2 | 14.5 | 0.00 | 0.00 | 0.00 | 88 | 1016.4 |
| 20260902200003 | 18 | 215 | 3.2 | 9.7 | 0.00 | 0.00 | 0.00 | 88 | 1016.3 |
| 20260902195403 | 18 | 232 | 3.2 | 11.3 | 0.00 | 0.00 | 0.00 | 88 | 1016.3 |
| 20260902194507 | 18 | 221 | 3.2 | 14.5 | 0.00 | 0.00 | 0.00 | 88 | 1016.2 |
| 20260902193603 | 18 | 234 | 3.2 | 11.3 | 0.00 | 0.00 | 0.00 | 88 | 1016.4 |